Probability
5 5 3 2 1 0 0 0 0 0 0 0 0 0 0 0 0 0 0 0 0 0 1 2 3 3 4 5 4 2 2 3 2 3 4 4 3 3 3 2 2 1 1 2 2 3 6 6 4
4 4 4 2 0 0 0 0 0 0 0 0 0 0 0 0 0 0 0 0 0 0 0 1 3 4 5 6 6 5 5 4 3 3 4 4 3 3 3 2 1 0 1 2 3 4 6 6 4
3 5 6 4 1 0 0 1 1 1 0 0 0 0 0 0 0 0 0 0 0 0 0 2 5 6 6 6 6 6 5 4 2 2 3 3 4 3 3 2 1 1 2 3 3 5 7 7 4
6 8 7 4 1 1 1 2 2 2 1 0 0 0 0 0 0 0 1 0 0 0 0 2 6 7 7 6 5 5 3 2 1 1 1 3 3 3 3 3 2 2 2 3 5 6 8 7 6
11 10 6 2 1 1 2 3 3 3 2 1 0 0 0 0 0 0 0 0 0 0 0 2 5 6 6 6 5 5 3 1 0 0 1 2 2 1 2 3 3 3 2 4 6 7 8 9 9
12 9 4 0 1 2 3 3 3 3 2 1 0 0 0 0 0 0 0 0 0 0 1 2 3 4 5 6 7 6 4 2 0 0 1 1 1 1 2 3 5 4 3 4 6 7 8 10 11
10 5 1 0 1 2 3 3 3 2 1 0 0 0 0 0 0 2 2 2 1 1 1 2 2 2 3 5 7 8 7 4 2 1 0 1 2 3 3 3 5 5 4 4 4 5 7 8 9
7 3 0 0 1 2 4 4 2 1 0 0 1 2 1 2 3 5 5 5 4 3 2 1 0 1 2 3 7 9 8 7 5 2 0 1 2 5 5 4 4 5 4 4 3 4 4 4 4
4 2 0 0 0 2 5 5 2 1 0 1 3 5 5 5 7 8 7 7 6 5 2 0 0 0 0 2 4 7 7 8 6 3 1 1 1 4 5 3 3 3 4 3 3 3 2 2 1
2 1 0 0 0 2 5 6 4 2 1 2 5 9 10 8 7 7 7 7 6 4 1 0 0 0 0 0 2 3 4 5 5 4 3 2 1 2 3 3 3 3 3 3 2 1 1 0 0
1 0 0 0 1 3 5 5 4 2 1 4 9 13 13 10 7 6 7 7 6 4 2 1 0 0 0 0 0 1 1 1 3 4 5 3 1 1 2 2 2 2 2 1 1 0 0 0 0
0 0 0 0 1 3 4 4 4 3 2 7 13 16 16 12 9 8 10 9 6 4 3 2 1 0 0 0 1 1 1 1 1 3 4 3 1 0 0 0 1 1 1 0 0 0 0 0 0
0 0 0 0 1 3 3 4 4 4 6 10 15 18 17 14 10 10 13 11 7 5 4 3 1 0 0 1 1 2 3 2 1 2 2 2 0 0 0 0 0 0 0 0 0 0 0 0 0
0 0 0 1 2 3 3 4 5 7 9 13 16 17 17 14 10 10 12 12 9 7 5 3 2 1 1 3 3 3 3 3 1 1 1 1 0 0 0 0 0 0 0 0 0 0 0 0 0
0 0 0 1 2 3 4 5 6 8 11 14 16 18 17 16 12 10 12 12 10 8 6 4 2 1 3 5 5 4 3 3 2 0 0 0 0 0 0 0 0 0 0 0 0 0 0 0 0
0 0 0 0 1 3 3 4 6 8 11 15 18 19 18 17 13 11 12 13 11 8 6 4 3 3 4 5 5 3 2 2 1 0 0 0 0 0 0 0 0 0 0 0 0 0 0 0 0
0 0 0 0 1 2 3 4 5 7 11 16 20 19 17 15 14 13 13 14 13 10 6 4 5 5 5 5 4 2 1 1 0 0 0 0 0 0 0 0 0 0 0 0 0 0 0 0 0
0 0 0 0 1 2 3 4 5 7 11 16 19 18 16 15 14 14 13 14 15 13 9 6 5 6 6 5 3 1 0 0 0 0 0 0 0 0 0 0 0 0 0 0 0 0 0 0 0
0 0 0 0 2 3 4 5 5 6 8 13 16 15 13 14 15 14 13 13 15 16 14 9 6 6 6 6 4 3 1 0 0 0 0 0 0 0 0 0 0 0 0 0 0 0 0 0 0
0 0 0 1 3 5 6 6 5 4 6 10 13 12 10 11 13 14 13 14 16 17 16 13 9 7 7 5 4 3 2 1 0 0 0 0 1 1 1 0 0 0 0 0 0 0 0 0 0
0 1 1 2 4 7 7 6 5 4 6 9 11 10 9 9 11 14 14 14 15 16 16 14 11 8 7 5 4 4 3 2 1 1 0 0 1 2 2 1 1 1 0 0 0 0 0 0 0
0 1 1 2 3 6 6 4 3 4 6 9 12 12 10 9 10 13 15 15 15 16 16 14 12 9 7 7 6 5 4 3 3 2 1 1 2 3 3 4 4 3 2 1 1 1 1 1 1
0 0 0 1 2 3 3 2 3 4 7 10 13 15 13 11 11 12 15 19 20 19 17 14 12 11 11 10 10 7 5 4 4 3 3 2 3 3 4 5 6 6 5 4 3 3 2 2 2
0 0 0 0 0 1 1 1 2 5 9 13 16 17 16 13 13 14 17 22 25 24 21 17 14 13 14 14 13 10 7 5 4 3 3 3 3 3 4 6 6 6 6 6 5 4 4 3 3
0 0 0 0 0 0 0 0 2 5 9 12 14 16 17 16 15 17 20 22 24 24 22 18 15 13 14 15 14 12 9 7 5 4 4 4 3 4 5 6 6 6 6 6 5 5 5 4 4
0 0 0 0 0 0 0 1 2 4 6 8 9 12 15 17 17 18 19 19 19 18 18 17 15 12 12 12 12 11 10 9 7 5 5 5 5 6 6 6 5 6 5 4 4 4 5 5 5
0 0 0 0 0 0 0 1 2 4 5 6 7 9 12 16 17 15 14 14 15 14 14 15 16 14 12 11 10 10 10 10 9 7 6 6 6 7 8 7 6 6 5 4 4 4 4 4 4
0 0 0 0 0 0 0 0 2 4 6 8 9 9 10 12 13 11 9 10 12 13 13 15 17 16 14 12 10 9 9 9 9 8 7 6 7 7 8 8 7 6 5 5 6 5 4 2 1
0 0 0 0 0 0 0 0 2 5 8 10 10 10 10 10 10 9 8 8 9 11 13 16 18 16 16 14 12 9 8 8 9 8 7 6 7 7 6 6 6 5 5 6 7 6 4 2 1
0 0 0 0 0 0 0 1 3 6 9 11 11 10 11 11 9 9 10 9 8 10 14 17 18 16 15 15 14 11 9 9 9 7 6 6 8 8 6 5 5 5 6 6 6 5 3 3 3
Wind_Speed
9 6 3 1 2 3 2 1 4 5 5 6 9 10 8 6 5 5 3 7 9 7 6 9 13 13 13 13 12 12 12 12 12 12 13 13 13 13 13 13 14 15 15 14 13 13 12 12 12
6 5 1 1 3 2 1 2 6 6 8 9 9 9 8 6 6 7 5 7 9 8 6 8 13 13 13 13 12 12 12 11 12 12 12 12 12 12 12 13 13 14 14 13 13 13 12 12 11
6 3 1 2 1 2 2 3 7 8 8 7 6 5 5 5 6 5 6 11 9 7 6 8 13 13 13 13 12 11 11 11 11 11 12 12 11 11 11 12 12 13 14 13 13 12 11 11 10
3 1 2 2 1 2 4 5 7 9 7 7 7 6 4 4 5 8 11 12 10 7 6 8 13 13 13 13 12 11 11 11 11 11 11 11 10 9 10 11 12 12 13 12 12 11 11 10 9
1 2 2 1 1 1 4 7 8 8 5 7 9 7 4 4 11 14 12 11 10 7 5 7 12 13 13 12 11 11 10 10 10 10 10 10 9 8 9 10 11 12 12 12 12 11 10 10 8
2 2 2 1 1 3 3 6 9 10 9 8 9 7 4 6 11 12 12 10 9 8 6 6 11 12 12 12 11 10 10 10 10 9 9 9 8 8 9 9 10 11 11 11 11 11 10 9 8
2 2 1 2 2 3 4 5 8 9 8 6 7 7 4 5 8 11 11 10 8 7 6 5 6 8 10 11 10 10 9 10 9 9 8 7 8 8 9 9 9 10 11 10 10 10 10 8 7
4 2 1 1 2 2 4 5 6 8 7 8 7 7 6 7 9 10 10 9 8 6 5 5 5 4 4 5 9 9 9 10 9 9 8 7 7 7 8 7 8 9 10 10 10 10 10 9 7
3 2 2 3 3 2 6 7 4 6 8 6 5 7 10 13 12 11 9 8 6 6 4 4 4 3 3 3 6 7 9 9 8 7 7 5 2 3 4 7 8 9 9 9 10 10 9 8 8
4 3 6 4 4 5 5 7 6 6 8 7 10 11 13 12 11 10 10 9 7 5 4 3 3 3 3 3 3 2 3 4 3 2 3 2 2 2 3 6 8 8 8 9 9 9 8 6 3
4 5 3 2 5 6 5 4 4 9 6 9 14 14 13 13 11 10 9 8 7 6 4 3 3 3 2 1 2 1 1 2 2 3 2 2 1 1 1 1 3 3 5 3 4 5 3 3 2
2 3 3 3 4 6 6 5 5 5 8 12 15 15 13 13 11 10 9 8 7 6 5 4 3 3 2 2 2 2 2 2 2 2 3 2 1 1 1 1 2 2 1 2 2 2 3 3 3
1 2 1 4 4 5 7 7 7 7 11 14 15 14 13 12 10 8 8 8 7 6 4 4 4 3 2 2 2 2 2 2 2 2 2 3 2 2 1 1 2 2 2 2 2 3 3 3 3
3 2 1 3 5 6 10 7 7 7 13 14 13 11 11 11 10 8 8 7 7 6 5 3 4 3 2 2 2 2 2 2 2 2 2 3 2 2 2 2 2 2 2 2 2 3 3 3 3
1 2 4 1 3 5 10 5 6 11 13 13 11 9 9 9 10 9 9 7 7 6 5 4 4 3 2 2 2 2 2 2 2 2 2 3 3 2 2 2 2 2 2 2 2 2 2 2 2
4 3 2 4 2 4 8 4 5 11 14 12 11 10 9 8 9 9 9 7 7 6 5 4 4 3 2 2 2 2 2 2 2 2 2 3 3 3 2 2 2 2 2 2 2 2 2 2 2
3 1 3 5 2 3 5 5 7 9 12 11 10 10 10 8 8 8 9 8 7 7 6 4 3 3 2 2 2 2 2 2 2 2 2 2 3 3 2 2 1 2 2 2 2 2 3 3 2
4 3 3 4 2 4 4 5 9 10 11 11 10 9 9 9 9 8 8 8 8 7 6 5 4 3 3 2 2 2 2 1 1 1 2 2 2 3 2 2 2 2 2 2 2 3 2 2 2
3 3 5 6 3 3 3 5 7 9 9 9 9 9 9 9 7 7 8 8 7 6 6 5 5 4 3 2 2 2 1 1 1 1 2 3 3 3 3 2 2 2 2 2 3 3 3 2 2
3 3 5 4 1 3 3 3 6 8 10 11 12 11 11 8 7 7 7 7 7 7 6 6 5 5 4 3 2 2 2 1 1 1 1 1 2 3 3 3 2 2 2 2 2 3 2 1 2
5 4 4 3 3 5 4 2 0 3 4 6 8 9 10 12 11 9 8 7 7 7 7 7 6 5 5 4 2 2 2 1 1 1 0 0 1 2 2 2 3 2 3 3 2 3 3 2 1
4 4 2 1 3 2 2 0 4 2 2 5 7 7 9 9 9 8 8 7 8 7 7 6 6 6 5 4 4 4 3 2 2 1 1 0 1 2 2 2 3 2 2 2 2 2 2 3 2
5 2 2 1 3 3 4 2 5 0 3 6 7 8 9 9 9 9 9 9 7 7 6 5 6 5 4 4 4 4 3 2 1 1 1 1 1 1 1 2 2 2 2 2 2 2 2 2 2
3 5 7 7 6 3 3 1 5 3 6 6 6 7 8 8 8 8 8 7 5 5 5 5 6 5 4 5 4 4 4 3 3 2 1 0 0 0 1 2 2 2 2 2 2 2 2 2 2
5 7 5 6 5 3 3 1 6 6 6 8 8 8 7 7 8 8 8 7 7 6 5 5 6 4 4 4 4 4 4 4 4 3 2 2 1 1 1 1 1 1 2 2 2 2 1 2 1
2 8 8 4 3 4 3 3 6 5 3 6 7 8 7 7 7 7 8 8 8 7 6 6 6 5 4 4 4 4 4 3 2 3 3 2 2 2 1 1 1 1 1 1 1 1 1 1 1
2 2 7 8 2 0 3 3 6 3 2 4 5 6 7 7 6 6 6 7 7 7 7 7 6 5 4 4 4 3 3 3 3 2 2 2 2 1 1 1 1 1 1 1 1 1 1 1 1
4 5 6 6 4 1 3 2 4 2 0 2 3 5 5 5 5 5 5 5 6 6 6 5 6 6 5 4 4 3 3 3 3 2 2 2 2 1 1 1 1 1 1 1 1 1 1 1 1
2 3 5 5 6 6 2 6 5 5 4 4 3 4 5 6 5 5 4 4 4 4 5 5 5 5 4 3 3 3 2 2 2 2 2 2 2 2 2 2 1 1 1 1 1 1 1 1 2
4 4 6 5 3 4 4 6 4 4 4 5 5 5 5 6 6 5 4 4 3 4 4 5 5 5 5 4 3 2 2 2 2 2 2 1 2 2 2 1 1 1 1 1 2 2 1 1 2
Wind_Direction
167 162 163 164 35 45 67 87 102 83 64 67 80 88 86 71 93 123 169 130 128 137 140 137 136 134 130 127 123 120 118 119 120 121 122 124 127 130 134 139 142 143 143 142 141 141 140 137 135
164 163 179 35 57 62 54 113 95 100 121 112 86 85 81 72 90 112 121 129 129 136 136 135 136 134 132 129 126 125 122 122 123 124 126 128 130 133 140 143 146 147 146 146 147 146 143 141 140
174 180 130 52 52 143 132 126 112 106 110 104 91 66 75 107 109 117 137 132 127 130 133 141 139 135 134 132 129 127 127 124 124 127 129 132 135 139 144 148 150 149 150 152 152 150 148 146 145
165 120 50 60 101 186 152 143 120 109 91 84 99 76 63 87 115 126 131 128 126 128 131 140 140 138 137 136 133 130 128 128 129 132 133 133 136 140 144 145 153 155 156 156 156 155 155 154 154
90 77 43 6 106 123 130 125 115 107 98 94 97 94 73 76 111 122 127 127 127 131 138 140 138 139 139 139 137 135 135 135 137 136 136 136 139 144 145 147 153 159 160 162 162 161 162 162 165
66 71 53 2 54 88 106 115 102 103 112 111 104 105 99 117 119 127 130 129 129 133 135 140 141 140 142 143 142 141 140 144 144 141 140 140 142 146 149 153 155 159 162 163 164 167 168 170 173
129 107 187 158 109 99 134 117 107 119 120 121 121 103 115 130 131 129 131 127 125 125 127 133 142 143 147 149 150 148 146 150 149 147 145 148 146 148 152 155 156 161 164 168 171 174 177 179 182
155 107 294 165 135 135 125 105 109 117 113 124 117 122 148 160 138 125 122 121 121 119 126 136 137 136 145 152 155 156 155 157 158 156 153 153 152 151 156 157 163 167 171 177 181 184 186 187 189
137 84 240 206 157 141 122 103 89 87 102 102 97 122 144 142 130 119 116 113 118 116 119 130 129 131 139 157 159 161 163 165 161 161 159 149 136 146 155 166 170 172 177 183 190 192 192 194 200
137 172 225 205 162 144 130 128 132 105 101 97 99 111 127 127 124 124 128 129 131 134 133 128 130 136 144 156 149 164 166 165 161 155 158 146 140 156 159 172 174 178 182 189 197 199 199 201 204
176 197 222 154 149 133 126 124 126 128 129 142 139 136 132 127 125 126 132 136 141 146 140 136 142 144 143 138 137 149 153 154 157 159 158 149 140 157 158 168 181 184 187 192 202 205 200 194 198
187 242 192 156 140 132 143 138 117 138 150 148 141 137 133 132 135 140 139 137 138 135 135 138 138 133 141 133 139 144 149 156 164 172 166 154 151 160 162 170 179 178 182 185 194 192 197 194 197
176 259 197 171 154 142 128 123 115 120 128 130 131 132 136 137 136 137 137 136 135 131 130 135 127 132 141 131 146 138 155 168 166 163 164 161 162 170 174 173 174 181 182 179 178 184 190 192 194
224 252 252 179 158 150 124 118 105 132 131 129 132 137 141 142 139 135 136 139 141 140 143 146 135 130 124 133 142 153 166 165 154 158 164 159 156 161 162 161 162 176 184 180 175 175 181 184 175
8 12 338 212 156 147 115 94 131 144 135 134 136 138 140 144 143 148 152 151 150 151 151 154 146 136 128 140 153 154 161 152 154 168 162 153 147 155 155 148 158 173 170 154 144 149 154 155 156
15 31 324 276 180 157 113 132 154 150 144 146 148 144 147 152 153 156 156 154 152 151 152 163 151 142 139 135 150 144 147 146 157 162 155 156 156 153 149 144 167 173 156 141 140 139 136 140 146
13 332 270 293 249 142 109 150 171 164 151 155 158 154 154 157 158 159 160 159 157 156 156 159 148 150 153 129 132 127 127 138 153 157 160 161 161 160 146 153 173 165 150 149 160 138 140 148 164
264 271 282 284 296 108 118 157 162 169 162 163 163 157 159 166 171 167 162 161 159 159 158 156 151 155 145 116 96 92 95 103 117 141 170 165 165 166 150 154 157 147 134 134 136 139 136 154 165
225 259 273 274 260 105 127 140 164 168 168 166 166 167 171 175 172 165 164 160 156 161 162 163 160 164 148 133 127 124 131 144 135 158 168 169 169 168 157 157 151 141 143 157 153 140 131 144 135
235 250 270 292 329 93 111 140 171 176 183 176 174 174 175 171 168 174 168 163 162 167 171 169 171 170 167 164 163 156 155 162 166 182 147 170 169 174 170 163 163 151 141 141 147 143 133 149 140
261 216 213 235 24 41 72 11 249 197 174 174 178 177 178 174 175 176 171 171 170 173 177 175 176 171 170 163 138 116 89 58 48 44 38 191 155 147 146 154 155 148 149 152 159 158 154 161 191
256 242 184 165 81 328 82 292 283 197 180 185 189 180 177 175 172 173 172 176 180 181 179 173 172 171 170 158 147 147 144 155 187 179 159 70 106 124 138 142 144 147 145 150 165 150 158 154 181
226 223 119 96 91 35 11 92 280 242 195 200 190 179 175 175 174 176 176 176 175 172 169 170 163 165 162 154 155 151 148 158 143 126 98 80 66 107 140 147 141 144 148 158 164 143 139 155 173
146 60 37 45 64 32 296 130 277 239 204 186 180 170 169 173 172 174 172 162 159 160 161 162 158 163 163 160 159 157 158 155 143 147 155 171 112 58 134 145 141 153 155 164 180 165 156 171 167
81 83 38 12 20 264 268 145 247 249 202 170 168 172 173 169 167 164 161 164 166 163 163 159 157 158 165 162 164 164 165 165 169 180 179 174 169 208 208 174 158 168 176 168 167 157 174 187 179
182 132 147 173 200 273 310 231 257 267 211 162 161 164 163 157 157 159 163 166 168 168 169 166 167 166 170 164 167 164 161 167 179 186 180 184 190 209 201 182 182 186 187 179 163 165 200 195 203
153 155 157 132 132 146 275 288 308 345 72 122 140 144 156 154 151 155 163 166 166 166 172 175 170 165 173 174 165 162 165 171 181 185 176 175 189 193 182 184 186 199 186 180 168 190 216 194 211
147 150 94 105 133 237 290 260 240 253 75 83 134 151 154 149 151 155 158 166 171 171 167 165 164 172 177 173 171 163 170 176 177 164 169 180 194 196 176 168 168 175 170 174 176 223 235 219 237
31 72 99 113 146 152 217 270 228 188 169 147 134 139 153 156 157 160 158 154 155 156 156 159 162 160 159 167 166 161 163 167 161 169 182 189 191 180 184 189 190 190 190 197 198 239 242 236 262
152 155 139 141 196 157 160 263 259 176 155 140 130 129 131 137 135 130 121 112 119 133 152 158 161 166 167 170 152 153 153 158 169 184 198 187 191 191 188 181 193 202 194 194 200 234 252 239 249